Regional Weather Roundup
Issued by NWS Northern Indiana

Home | Current Version | Previous Version | Graphics & Text | Print | Product List | Glossary On
Versions: 1 2 3 4 5 6 7 8 9 10 11 12 13 14 15 16 17 18 19 20 21 22 23 24 25 26 27 28 29 30 31 32 33 34 35 36 37 38 39 40 41 42 43 44 45 46 47 48 49 50
000
ASUS43 KIWX 222300
RWRIWX

KIWX WEATHER ROUNDUP
NATIONAL WEATHER SERVICE NORTHERN INDIANA
600 PM EST WED FEB 22 2017

NOTE: "FAIR" INDICATES FEW OR NO CLOUDS BELOW 12,000 FEET WITH NO
SIGNIFICANT WEATHER AND/OR OBSTRUCTIONS TO VISIBILITY.

* THESE STATIONS ARE NOT UNDER NWS QUALITY CONTROL. THEY ALSO MAY NOT
  REPORT WEATHER SUCH AS PRECIPITATION OR FOG.

INZ001>027-230000-
NORTHERN INDIANA

CITY           SKY/WX    TMP DP  RH WIND       PRES   REMARKS
GARY*          CLEAR     66  54  63 S12G23    29.67F
MICHIGAN CITY* CLEAR     63  54  72 S9        29.69F
LAPORTE*       PTCLDY    62  55  77 S5        29.71S
KNOX*          MOCLDY    63  36  36 S9        29.71S
SOUTH BEND     CLOUDY    60  54  80 S9        29.72F
ELKHART*       MOCLDY    59  54  82 S9        29.72F
GOSHEN         PTCLDY    60  51  72 S12       29.73F
WARSAW*        MOCLDY    59  52  77 S5        29.74S
ANGOLA*        CLOUDY    61  50  67 S7        29.73F
FORT WAYNE     MOCLDY    61  53  75 S8        29.76S
PERU/GRISSOM   CLOUDY    63  56  80 SW9       29.74F

$$
INZ028>050-230000-
CENTRAL INDIANA

CITY           SKY/WX    TMP DP  RH WIND       PRES   REMARKS
LAFAYETTE      CLEAR     64  55  72 S7        29.73F
KOKOMO*        MOCLDY    62  54  74 SW10      29.77R
MUNCIE*        CLOUDY    64  55  72 S9        29.77S
INDIANAPOLIS   MOCLDY    65  55  70 SW9       29.77R

$$
MIZ043>046-050>051-056>058-064>065-071>073-077>080-230000-
SOUTHWEST LOWER MICHIGAN

CITY           SKY/WX    TMP DP  RH WIND       PRES   REMARKS
BATTLE CREEK   CLOUDY    59  53  80 S13       29.72F
BENTON HARBOR  CLEAR     63  54  72 S9        29.67F
COLDWATER*     CLOUDY    60  54  78 S5        29.73S
HILLSDALE*     CLOUDY    57  52  82 S9        29.74S
HOLLAND        CLEAR     61  52  72 S10       29.65F
GRAND RAPIDS   PTCLDY    61  51  70 S13       29.66F
KALAMAZOO      CLOUDY    59  51  75 S9        29.71F
STURGIS*       CLOUDY    59  54  82 SW9       29.73R
THREE RIVERS*  MOCLDY    59  52  77 S9        29.72F

$$
OHZ001>008-015>018-024>025-230000-
NORTHWEST OHIO

CITY           SKY/WX    TMP DP  RH WIND       PRES   REMARKS
DEFIANCE       CLOUDY    61  52  72 SW6       29.76S
FINDLAY        CLOUDY    61  53  75 S12       29.77S
TOLEDO EXPRESS CLOUDY    60  55  83 S6        29.75F
TOLEDO METCALF CLOUDY    61  55  81 S8        29.77S
LIMA           CLOUDY    60  55  83 S10       29.78S

$$
AND FOR LAKE MICHIGAN COASTAL AND OPEN LAKE BUOY OBSERVATIONS

STATION/POSITION TEMP    WIND        PRES    VSBY  WAVE
                 AIR SEA DIR/SP/G                  HT/PER
                 (F)     (DEG/KT/KT) (MB)    (MI)  (FT/S)
CALUMET HARBOR    65     170/ 12/ 15 1003.7F
MICHIGAN CITY     63     170/ 11/ 15   N/A
BURNS HARBOR      64     190/ 14/ 16 1005.4F

$$
&&



USA.gov is the U.S. government's official web portal to all federal, state and local government web resources and services.